Regional Weather Roundup
Issued by NWS

Home | Current Version | Previous Version | Text Only | Print | Product List | Glossary On
Versions: 1 2 3 4 5 6 7 8 9 10 11 12 13 14 15 16 17 18 19 20 21 22 23 24 25 26 27
000
ASPQ40 PGUM 240712
RWRPQ
WEATHER ROUNDUP FOR THE MARIANAS AND MICRONESIA
NATIONAL WEATHER SERVICE TIYAN GU
500 PM CHST WED JAN 24 2018

GUZ001>004-240800-
MARIANA ISLANDS-

CITY           SKY/WX    TMP DP  RH WIND       PRES   REMARKS
GUAM AIRPORT   CLOUDY    82  73  74 E15G24    29.77R
ANDERSEN AFB   PTSUNNY   81  72  74 NE14      29.78R
ROTA AIRPORT   MOSUNNY   81  70  69 E15       29.77
TINIAN AP      MOSUNNY   82  73  74 NE15      29.76R
SAIPAN AP      MOSUNNY   82  72  69 E15       29.76R

$$

PMZ161-240800-
REPUBLIC OF PALAU-

CITY           SKY/WX    TMP DP  RH WIND       PRES   REMARKS
KOROR AP       PTSUNNY   86  75  70 E9        29.66S HX  95
KOROR WSO      PTSUNNY   88  77  70 E7        29.67S HX 100

$$

PMZ171>174-240800-
FEDERATED STATES OF MICRONESIA-

CITY           SKY/WX    TMP DP  RH WIND       PRES   REMARKS
YAP AIRPORT    PTSUNNY   82  77  83 E12       29.69R HX  91
CHUUK AP       MOSUNNY   86  79  79 NE12      29.65R HX  99
POHNPEI AP     NOT AVBL
POHNPEI WSO    CLOUDY    79  77  94 NE9       29.68R
KOSRAE AP      NOT AVBL

$$

PMZ181-240800-
REPUBLIC OF THE MARSHALL ISLANDS-

CITY           SKY/WX    TMP DP  RH WIND       PRES   REMARKS
KWAJALEIN AP   PTCLDY    82  75  78 E21       29.67R
MAJURO AP      MOCLDY    84  77  79 NE12      29.66S HX  94
MAJURO WSO     MOCLDY    82  75  78 E12       29.64R

$$





USA.gov is the U.S. government's official web portal to all federal, state and local government web resources and services.